Simultaneous Nadir Overpasses (SNOs) Predictions

Prediction of SNOs between GOES-17 and NOAA-19 Satellite Orbit:

Table of predicted SNOs for the next 14.0 days since TLE Epoch: 10/8/2022
Index Date Time (GOES-17) GOES-17 Lat,Lon NOAA-19 Lat,Lon Distance(km) Time Diff (sec)
1 10/08/2022 17:08:59 -0.05,-137.32 -0.31,-136.10 138.93 80
2 10/09/2022 16:57:07 -0.05,-137.32 -1.02,-133.21 469.33 80
3 10/11/2022 05:26:49 0.05,-137.30 -0.80,-140.96 417.83 80
4 10/12/2022 05:14:56 0.05,-137.30 -0.10,-138.07 87.89 80
5 10/13/2022 05:05:43 0.05,-137.29 0.54,-135.17 241.99 80
6 10/15/2022 17:23:31 -0.04,-137.26 0.56,-140.02 314.43 80
7 10/16/2022 17:14:16 -0.04,-137.25 -0.04,-137.11 15.32 80
8 10/17/2022 17:02:23 -0.04,-137.23 -0.71,-134.21 344.30 80
9 10/20/2022 05:20:14 0.04,-137.18 -0.41,-139.07 216.33 80
10 10/21/2022 05:11:00 0.04,-137.16 0.25,-136.17 112.49 80
